Price, UT

12:49 AM MDT on March 30, 2017 (GMT -0600)
Carbon County

Weather History for KPUC - May, 2014

Change the Weather History Date:

Friday, May 9, 2014

  Actual Average Record
Temperature  
Mean Temperature 53 °F -  
Max Temperature 64 °F 66 °F 89 °F (1989)
Min Temperature 42 °F 38 °F 26 °F (1986)
Degree Days  
Heating Degree Days 12    
Growing Degree Days 3 (Base 50)    
Moisture  
Dew Point 27 °F    
Average Humidity 37    
Maximum Humidity 53    
Minimum Humidity 23    
Precipitation  
Precipitation 0.00 in - - ()
Sea Level Pressure  
Sea Level Pressure 29.87 in    
Wind  
Wind Speed 6 mph (NNW)    
Max Wind Speed 23 mph    
Max Gust Speed 40 mph    
Visibility 10 miles    
Events      
Averages and records for this station are not official NWS values.
T = Trace of Precipitation, MM = Missing Value Source: NWS Daily Summary

Daily Weather History Graph

Daily Weather History Graph

Search for Another Location

Airport or City:

Trip Planner

Search our weather history database for the weather conditions in past years. The results will help you decide how hot, cold, wet, or windy it might be!

Date:

Astronomy

May. 09, 2014 Rise Set
Actual Time 6:14 AM MDT 8:24 PM MDT
Civil Twilight 5:44 AM MDT 8:54 PM MDT
Nautical Twilight 5:08 AM MDT 9:31 PM MDT
Astronomical Twilight 4:28 AM MDT 10:11 PM MDT
Moon 3:26 PM MDT (5/9) 3:17 AM MDT (5/9)
Length of Visible Light 15h 10m
Length of Day
14h 10m
Waxing Gibbous, 74% of the Moon is Illuminated
May 9
Waxing Gibbous
May 14
Full
May 21
Last Quarter
May 28
New
Jun 5
First Quarter

Hourly Weather History & Observations

Time (MDT) Temp. Windchill Dew Point Humidity Pressure Visibility Wind Dir Wind Speed Gust Speed Precip Events Conditions
12:53 AM 44.1 °F 40.8 °F 25.0 °F 47% 29.94 in 10.0 mi SE 5.8 mph - N/A   Clear
1:53 AM 42.1 °F - 26.1 °F 53% 29.94 in 10.0 mi Calm Calm - N/A   Clear
2:53 AM 44.6 °F 41.4 °F 24.8 °F 46% 29.98 in 10.0 mi North 5.8 mph - N/A   Mostly Cloudy
3:53 AM 45.0 °F 41.8 °F 26.1 °F 48% 29.91 in 10.0 mi NNE 5.8 mph - N/A   Overcast
4:53 AM 46.0 °F 43.9 °F 26.1 °F 46% 29.88 in 10.0 mi ENE 4.6 mph - N/A   Overcast
5:53 AM 44.1 °F - 26.1 °F 49% 29.89 in 10.0 mi Calm Calm - N/A   Overcast
6:53 AM 46.0 °F - 25.0 °F 44% 29.89 in 10.0 mi Calm Calm - N/A   Overcast
7:53 AM 46.9 °F - 26.1 °F 44% 29.91 in 10.0 mi ENE 3.5 mph - N/A   Mostly Cloudy
8:53 AM 48.0 °F - 26.1 °F 42% 29.93 in 10.0 mi ESE 4.6 mph - N/A   Mostly Cloudy
9:53 AM 51.1 °F - 24.1 °F 35% 29.94 in 10.0 mi Calm Calm - N/A   Overcast
10:53 AM 53.1 °F - 28.0 °F 38% 29.91 in 10.0 mi Calm Calm - N/A   Overcast
11:53 AM 55.9 °F - 28.9 °F 36% 29.89 in 10.0 mi SE 8.1 mph - N/A   Mostly Cloudy
12:53 PM 60.1 °F - 28.0 °F 30% 29.86 in 10.0 mi South 9.2 mph - N/A   Mostly Cloudy
1:53 PM 62.1 °F - 26.1 °F 25% 29.84 in 10.0 mi Variable 5.8 mph - N/A   Mostly Cloudy
2:53 PM 62.1 °F - 25.0 °F 24% 29.81 in 10.0 mi WNW 8.1 mph - N/A   Mostly Cloudy
3:14 PM 62.1 °F - 26.1 °F 25% 29.88 in 10.0 mi West 23.0 mph 40.3 mph N/A   Mostly Cloudy
3:53 PM 64.0 °F - 27.0 °F 25% 29.77 in 10.0 mi NW 13.8 mph 26.5 mph N/A   Clear
4:20 PM 64.0 °F - 25.0 °F 23% 29.87 in 10.0 mi West 20.7 mph 32.2 mph N/A   Partly Cloudy
4:53 PM 63.0 °F - 27.0 °F 26% 29.77 in 10.0 mi WSW 17.3 mph 25.3 mph N/A   Mostly Cloudy
5:53 PM 64.0 °F - 30.0 °F 28% 29.78 in 10.0 mi NW 12.7 mph 18.4 mph N/A   Clear
6:53 PM 63.0 °F - 24.1 °F 23% 29.77 in 10.0 mi West 17.3 mph 24.2 mph N/A   Clear
7:53 PM 59.0 °F - 30.0 °F 33% 29.80 in 10.0 mi NNW 10.4 mph - N/A   Clear
8:53 PM 53.6 °F - 30.2 °F 41% 29.90 in 10.0 mi North 8.1 mph - N/A   Clear
9:53 PM 50.0 °F - 30.0 °F 46% 29.86 in 10.0 mi North 5.8 mph - N/A   Clear
10:53 PM 51.1 °F - 28.9 °F 43% 29.85 in 10.0 mi NNW 10.4 mph - N/A   Clear
11:53 PM 51.1 °F - 28.9 °F 43% 29.84 in 10.0 mi Calm Calm - N/A   Clear